Regional Weather Roundup
Issued by NWS Charleston, SC

Current Version | Previous Version | Graphics & Text | Print | Product List | Glossary On
Versions: 1 2 3 4 5 6 7 8 9 10 11 12 13 14 15 16 17 18 19 20 21 22 23 24 25 26 27 28 29 30 31 32 33 34 35 36 37 38 39 40 41 42 43 44 45 46 47 48 49 50
000
ASUS42 KCHS 171325
RWRCHS

REGIONAL WEATHER ROUNDUP
NATIONAL WEATHER SERVICE CHARLESTON SC
900 AM EDT THU APR 17 2014

NOTE: "FAIR" INDICATES FEW OR NO CLOUDS BELOW 12,000 FEET WITH NO
SIGNIFICANT WEATHER AND/OR OBSTRUCTIONS TO VISIBILITY.

NOT ALL STATIONS ARE QUALITY CONTROLLED BY THE NATIONAL
WEATHER SERVICE. USE DATA WITH CAUTION...ESPECIALLY
DEWPOINT OBSERVATIONS.

SCZ027-030-031-034>040-042>050-171400-
...SOUTH CAROLINA...

CITY           SKY/WX    TMP DP  RH WIND       PRES   REMARKS
N CHARLESTON   PTSUNNY   49  35  58 N10       30.43R
WATERFRONT PRK   N/A     48 N/A N/A N16G22      N/A
FORT JOHNSON     N/A     46  39  76 N9        30.47R
MOUNT PLEASANT FAIR     N/A N/A N/A N5        30.43R
JOHNS ISLAND   SUNNY     48  43  81 N10       30.43R
PINOPOLIS        N/A     45  36  70 NE12      30.37R
MONCKS CORNER  FAIR      45  36  70 N8        30.44S
SUMMERVILLE    FAIR      46  37  71 NE6G16    30.44S
BEAUFORT MCAS  CLOUDY    48  34  58 E14       30.41R
BEAUFORT ARPT  FAIR      50  41  71 NE18      30.41R
HILTON HEAD IS MOSUNNY   50  41  71 N14G23    30.40R
GEORGETOWN     NOT AVBL
WALTERBORO     PTSUNNY   46  36  66 NE8       30.44S
ORANGEBURG     MOSUNNY   45  26  47 NE12      30.46R
BARNWELL       FAIR      46  32  57 NE15      30.45S
AIKEN          FAIR      45  34  65 NE13G21   30.48R
MANNING          N/A     46  36  66 N10       30.46S
KINGSTREE      NOT AVBL
COLUMBIA       PTSUNNY   47  25  42 E13       30.48R
SUMTER         SUNNY     43  30  60 NE15      30.47R
FLORENCE       MOSUNNY   44  31  60 NE13      30.47S
MYRTLE BEACH   SUNNY     45  36  70 N12       30.45R
N MYRTLE BEACH SUNNY     46  35  65 N14G21    30.44S

$$

GAZ063-065-086>088-099>101-113>116-118-119-134-136>141-150-171400-
...GEORGIA...

CITY           SKY/WX    TMP DP  RH WIND       PRES   REMARKS
SAVANNAH ARPT  MOSUNNY   51  33  50 NE15G21   30.39R
HUNTER AAF     PTSUNNY   52  37  58 N8G18     30.37R
FORT STEWART   CLOUDY    50  42  74 NE12G20   30.37R
STATESBORO     NOT AVBL
SYLVANIA       CLOUDY    50  30  46 NE12G17   30.43R
CLAXTON        FAIR      54  37  54 NE13      30.41R
THOMSON        SUNNY     46  35  65 NE15      30.50R
AUGUSTA-BUSH   SUNNY     47  32  56 NE9       30.46R
AUGUSTA-DANIEL SUNNY     47  30  51 NE10      30.45R
SWAINSBORO     CLOUDY    46  37  71 E7G18     30.42R
VIDALIA        CLOUDY    50  37  62 NE14      30.39R
ALMA           CLOUDY    52  43  71 VRB6      30.35R
WAYCROSS       NOT AVBL
JESUP          CLOUDY    52  46  82 NE10G16   30.37R
BRUNSWICK      CLOUDY    55  50  82 N12G22    30.35R
SAINT SIMONS   LGT RAIN  60  54  80 NE17G25   30.32R

$$

SCZ027-028-034-036>038-045-046-048>050-GAZ119-141-171400-
...LAKE AND SUPPLEMENTAL COASTAL OBSERVATIONS...

STATION/POSITION TIME  TEMP    WIND        PRES    WAVE   SWELL
                       AIR SEA DIR/SP/G            HT/PER HT/PER/DIR
                 (UTC) (F)     (DEG/KT/KT) (MB)    (FT/S) (FT/S/D)
UPR LAKE MARION  NOT AVBL
WINYAH BAY       1300   45      20/  8     1030.0S
LAKE MURRAY      1300   43      40/  6/  9 1031.8R
ACE BASIN NERRS  1300   45      20/  6     1029.0S
FORT PULASKI     1300   51 59   20/ 18/ 21 1028.9R
SAPELO ISLAND    1300   55      20/ 15     1027.0R

$$

ANZ086-088-AMZ330-350-352-354-374-454-470-171400-
...C-MAN AND BUOY OBSERVATIONS...

STATION/POSITION TIME  TEMP    WIND        PRES    WAVE   SWELL
                       AIR SEA DIR/SP/G            HT/PER HT/PER/DIR
                 (UTC) (F)     (DEG/KT/KT) (MB)    (FT/S) (FT/S/D)
FOLLY BEACH CMAN 1300   48      20/ 15/ 18 1030.4R
BUOY 41004       NOT AVBL
BUOY 41008       1200   61 63   50/ 23/ 29 1025.2R   7/ 8   3/ 70/11
5E ST. MARYS GA  1300      64                N/A     8/ 7   2/ 80/11
FRYING PAN BUOY  1300   56 62   50/ 23/ 27 1028.4R   9/ 7   2/110/10
BUOY 41025       NOT AVBL
CAPE LOOKOUT NC  1300   51      10/ 19/ 25 1030.7R
BUOY 41002       NOT AVBL
BUOY 41010       1300   71 76   40/ 19/ 23 1022.4R   9/ 9   7/ 30/ 9
BUOY 41012       NOT AVBL
ST AUGUSTINE FL  1300   65      30/ 17/ 18 1024.6R


$$



USA.gov is the U.S. government's official web portal to all federal, state and local government web resources and services.